| time (UTC) | temp F | wind direction | speed knots | gust knots | rain 1hr in | rain 24hr in | rain mn in | humidity % | barometer mb |
| 20260902173723 | 82 | 5 | 0.0 | 3.5 | 0.00 | 0.00 | 0.00 | 26 | 985.4 |
| 20260902173222 | 81 | 111 | 1.7 | 6.1 | 0.00 | 0.00 | 0.00 | 26 | 985.6 |
| 20260902172720 | 80 | 210 | 1.7 | 6.1 | 0.00 | 0.00 | 0.00 | 26 | 985.6 |
| 20260902172221 | 80 | 272 | 0.9 | 5.2 | 0.00 | 0.00 | 0.00 | 26 | 985.6 |
| 20260902171720 | 80 | 325 | 0.9 | 3.5 | 0.00 | 0.00 | 0.00 | 25 | 985.7 |
| 20260902171221 | 80 | 335 | 0.9 | 5.2 | 0.00 | 0.00 | 0.00 | 25 | 985.7 |
| 20260902170720 | 80 | 315 | 1.7 | 7.0 | 0.00 | 0.00 | 0.00 | 26 | 985.8 |
| 20260902170225 | 80 | 179 | 0.9 | 7.0 | 0.00 | 0.00 | 0.00 | 25 | 985.9 |
| 20260902170220 | 80 | 193 | 1.7 | 7.0 | 0.00 | 0.00 | 0.00 | 26 | 985.8 |
| 20260902165223 | 80 | 221 | 1.7 | 7.8 | 0.00 | 0.00 | 0.00 | 26 | 985.9 |
| 20260902165218 | 80 | 123 | 2.6 | 7.8 | 0.00 | 0.00 | 0.00 | 26 | 985.8 |
| 20260902164824 | 80 | 314 | 1.7 | 7.8 | 0.00 | 0.00 | 0.00 | 26 | 985.9 |
| 20260902163719 | 79 | 229 | 1.7 | 7.8 | 0.00 | 0.00 | 0.00 | 25 | 985.8 |
| 20260902163218 | 79 | 128 | 1.7 | 5.2 | 0.00 | 0.00 | 0.00 | 26 | 985.8 |
| 20260902162719 | 79 | 205 | 0.9 | 5.2 | 0.00 | 0.00 | 0.00 | 25 | 985.8 |
| 20260902162222 | 78 | 110 | 1.7 | 5.2 | 0.00 | 0.00 | 0.00 | 27 | 985.9 |
| 20260902162218 | 79 | 217 | 1.7 | 5.2 | 0.00 | 0.00 | 0.00 | 25 | 985.8 |
| 20260902161217 | 78 | 304 | 0.9 | 4.3 | 0.00 | 0.00 | 0.00 | 27 | 985.9 |
| 20260902160718 | 78 | 226 | 1.7 | 5.2 | 0.00 | 0.00 | 0.00 | 28 | 985.9 |
| 20260902160218 | 78 | 197 | 1.7 | 5.2 | 0.00 | 0.00 | 0.00 | 28 | 986.0 |
| 20260902155718 | 77 | 196 | 0.9 | 4.3 | 0.00 | 0.00 | 0.00 | 28 | 986.0 |
| 20260902155221 | 76 | 89 | 0.9 | 5.2 | 0.00 | 0.00 | 0.00 | 28 | 986.0 |
| 20260902154716 | 76 | 203 | 0.9 | 5.2 | 0.00 | 0.00 | 0.00 | 28 | 986.1 |
| 20260902154221 | 76 | 217 | 0.9 | 3.5 | 0.00 | 0.00 | 0.00 | 30 | 986.1 |
| 20260902154217 | 76 | 219 | 0.9 | 5.2 | 0.00 | 0.00 | 0.00 | 28 | 986.1 |
| 20260902153214 | 76 | 184 | 0.9 | 3.5 | 0.00 | 0.00 | 0.00 | 29 | 986.1 |
| 20260902152714 | 75 | 145 | 0.9 | 2.6 | 0.00 | 0.00 | 0.00 | 30 | 986.3 |
| 20260902152214 | 75 | 214 | 0.9 | 2.6 | 0.00 | 0.00 | 0.00 | 31 | 986.3 |
| 20260902151714 | 74 | 154 | 0.9 | 3.5 | 0.00 | 0.00 | 0.00 | 30 | 986.3 |
| 20260902151214 | 74 | 205 | 0.0 | 3.5 | 0.00 | 0.00 | 0.00 | 30 | 986.3 |
| 20260902150714 | 73 | 201 | 0.0 | 1.7 | 0.00 | 0.00 | 0.00 | 31 | 986.1 |
| 20260902150214 | 72 | 235 | 0.0 | 1.7 | 0.00 | 0.00 | 0.00 | 34 | 986.3 |
| 20260902145719 | 71 | 216 | 0.0 | 2.6 | 0.00 | 0.00 | 0.00 | 35 | 986.4 |
| 20260902145714 | 71 | 216 | 0.0 | 2.6 | 0.00 | 0.00 | 0.00 | 34 | 986.4 |
| 20260902144718 | 69 | 214 | 0.0 | 2.6 | 0.00 | 0.00 | 0.00 | 37 | 986.4 |
| 20260902144713 | 68 | 188 | 0.9 | 2.6 | 0.00 | 0.00 | 0.00 | 38 | 986.4 |
| 20260902143712 | 67 | 130 | 0.9 | 2.6 | 0.00 | 0.00 | 0.00 | 40 | 986.3 |
| 20260902143212 | 67 | 202 | 0.0 | 2.6 | 0.00 | 0.00 | 0.00 | 45 | 986.4 |
| 20260902142716 | 64 | 228 | 0.0 | 0.9 | 0.00 | 0.00 | 0.00 | 50 | 986.3 |
| 20260902142712 | 65 | 258 | 0.0 | 1.7 | 0.00 | 0.00 | 0.00 | 44 | 986.3 |
| 20260902141717 | 60 | 191 | 0.0 | 1.7 | 0.00 | 0.00 | 0.00 | 65 | 986.0 |
| 20260902141712 | 62 | 192 | 0.0 | 1.7 | 0.00 | 0.00 | 0.00 | 57 | 986.3 |
| 20260902141322 | 58 | 146 | 0.0 | 1.7 | 0.00 | 0.00 | 0.00 | 67 | 986.0 |
| 20260902141212 | 61 | 167 | 0.0 | 1.7 | 0.00 | 0.00 | 0.00 | 60 | 986.1 |
| 20260902135711 | 58 | 157 | 0.0 | 0.9 | 0.00 | 0.00 | 0.00 | 70 | 986.0 |
| 20260902135210 | 56 | 151 | 0.0 | 0.9 | 0.00 | 0.00 | 0.00 | 72 | 986.0 |
| 20260902134710 | 56 | 138 | 0.0 | 0.9 | 0.00 | 0.00 | 0.00 | 73 | 986.1 |
| 20260902134210 | 55 | 134 | 0.0 | 0.9 | 0.00 | 0.00 | 0.00 | 71 | 986.1 |
| 20260902133710 | 55 | 134 | 0.0 | 0.0 | 0.00 | 0.00 | 0.00 | 70 | 986.1 |
| 20260902133210 | 55 | 134 | 0.0 | 0.0 | 0.00 | 0.00 | 0.00 | 71 | 986.0 |
| 20260902132712 | 55 | 134 | 0.0 | 0.9 | 0.00 | 0.00 | 0.00 | 72 | 985.9 |
| 20260902132209 | 54 | 134 | 0.0 | 0.9 | 0.00 | 0.00 | 0.00 | 76 | 985.9 |
| 20260902131710 | 53 | 160 | 0.0 | 0.9 | 0.00 | 0.00 | 0.00 | 77 | 985.9 |
| 20260902131210 | 52 | 156 | 0.0 | 0.0 | 0.00 | 0.00 | 0.00 | 78 | 985.9 |
| 20260902130713 | 52 | 133 | 0.0 | 0.0 | 0.00 | 0.00 | 0.00 | 78 | 985.8 |
| 20260902130708 | 51 | 133 | 0.0 | 0.0 | 0.00 | 0.00 | 0.00 | 78 | 985.7 |
| 20260902125708 | 51 | 133 | 0.0 | 0.0 | 0.00 | 0.00 | 0.00 | 76 | 985.7 |
| 20260902125207 | 52 | 103 | 0.0 | 0.0 | 0.00 | 0.00 | 0.00 | 76 | 985.7 |
| 20260902124706 | 51 | 23 | 0.0 | 0.9 | 0.00 | 0.00 | 0.00 | 77 | 985.6 |
| 20260902124206 | 51 | 338 | 0.0 | 0.9 | 0.00 | 0.00 | 0.00 | 76 | 985.6 |
| 20260902123706 | 52 | 337 | 0.0 | 0.9 | 0.00 | 0.00 | 0.00 | 75 | 985.4 |
| 20260902123207 | 51 | 140 | 0.0 | 0.0 | 0.00 | 0.00 | 0.00 | 77 | 985.3 |
| 20260902122705 | 51 | 152 | 0.0 | 0.0 | 0.00 | 0.00 | 0.00 | 78 | 985.2 |
| 20260902122204 | 51 | 152 | 0.0 | 0.0 | 0.00 | 0.00 | 0.00 | 78 | 985.2 |
| 20260902121704 | 51 | 122 | 0.0 | 0.0 | 0.00 | 0.00 | 0.00 | 77 | 985.2 |
| 20260902121208 | 52 | 122 | 0.0 | 0.9 | 0.00 | 0.00 | 0.00 | 76 | 985.1 |
| 20260902121204 | 51 | 122 | 0.0 | 0.0 | 0.00 | 0.00 | 0.00 | 76 | 985.1 |
| 20260902120204 | 52 | 122 | 0.0 | 0.9 | 0.00 | 0.00 | 0.00 | 76 | 985.1 |
| 20260902115707 | 52 | 172 | 0.0 | 0.0 | 0.00 | 0.00 | 0.00 | 76 | 985.1 |
| 20260902115703 | 52 | 172 | 0.0 | 0.0 | 0.00 | 0.00 | 0.00 | 76 | 985.0 |
| 20260902114704 | 52 | 172 | 0.0 | 0.0 | 0.00 | 0.00 | 0.00 | 77 | 985.0 |
| 20260902114203 | 52 | 172 | 0.0 | 0.9 | 0.00 | 0.00 | 0.00 | 77 | 985.0 |
| 20260902113704 | 52 | 172 | 0.0 | 0.9 | 0.00 | 0.00 | 0.00 | 77 | 985.0 |
| 20260902113204 | 52 | 198 | 0.0 | 0.0 | 0.00 | 0.00 | 0.00 | 77 | 984.8 |
| 20260902112701 | 53 | 198 | 0.0 | 0.0 | 0.00 | 0.00 | 0.00 | 76 | 984.8 |
| 20260902112202 | 53 | 198 | 0.0 | 0.0 | 0.00 | 0.00 | 0.00 | 75 | 984.8 |
| 20260902111205 | 55 | 198 | 0.0 | 0.0 | 0.00 | 0.00 | 0.00 | 73 | 985.0 |
| 20260902111201 | 54 | 198 | 0.0 | 0.0 | 0.00 | 0.00 | 0.00 | 74 | 985.0 |
| 20260902110202 | 55 | 198 | 0.0 | 0.0 | 0.00 | 0.00 | 0.00 | 72 | 984.8 |
| 20260902105701 | 56 | 198 | 0.0 | 0.0 | 0.00 | 0.00 | 0.00 | 72 | 985.0 |
| 20260902105202 | 56 | 198 | 0.0 | 0.0 | 0.00 | 0.00 | 0.00 | 71 | 985.0 |
| 20260902104702 | 56 | 198 | 0.0 | 0.9 | 0.00 | 0.00 | 0.00 | 71 | 985.0 |
| 20260902104205 | 55 | 200 | 0.0 | 0.9 | 0.00 | 0.00 | 0.00 | 74 | 985.0 |
| 20260902104201 | 56 | 196 | 0.0 | 0.9 | 0.00 | 0.00 | 0.00 | 72 | 985.0 |
| 20260902103807 | 54 | 193 | 0.0 | 0.9 | 0.00 | 0.00 | 0.00 | 76 | 985.0 |
| 20260902102702 | 54 | 148 | 0.0 | 0.0 | 0.00 | 0.00 | 0.00 | 77 | 984.8 |
| 20260902102201 | 53 | 148 | 0.0 | 0.0 | 0.00 | 0.00 | 0.00 | 78 | 984.8 |
| 20260902101701 | 53 | 148 | 0.0 | 0.0 | 0.00 | 0.00 | 0.00 | 77 | 984.8 |
| 20260902101202 | 54 | 148 | 0.0 | 0.0 | 0.00 | 0.00 | 0.00 | 76 | 984.8 |
| 20260902100701 | 54 | 148 | 0.0 | 0.0 | 0.00 | 0.00 | 0.00 | 76 | 984.8 |
| 20260902100202 | 54 | 148 | 0.0 | 0.0 | 0.00 | 0.00 | 0.00 | 76 | 984.8 |
| 20260902095702 | 54 | 148 | 0.0 | 0.0 | 0.00 | 0.00 | 0.00 | 76 | 984.8 |
| 20260902095202 | 54 | 148 | 0.0 | 0.0 | 0.00 | 0.00 | 0.00 | 76 | 984.7 |
| 20260902094702 | 54 | 148 | 0.0 | 0.0 | 0.00 | 0.00 | 0.00 | 76 | 984.7 |
| 20260902094201 | 54 | 148 | 0.0 | 0.0 | 0.00 | 0.00 | 0.00 | 76 | 984.8 |
| 20260902093710 | 55 | 148 | 0.0 | 0.0 | 0.00 | 0.00 | 0.00 | 75 | 984.8 |
| 20260902093706 | 54 | 148 | 0.0 | 0.0 | 0.00 | 0.00 | 0.00 | 75 | 984.8 |
| 20260902092701 | 55 | 142 | 0.0 | 0.0 | 0.00 | 0.00 | 0.00 | 74 | 984.8 |
| 20260902092201 | 55 | 142 | 0.0 | 0.0 | 0.00 | 0.00 | 0.00 | 73 | 985.0 |
| 20260902091701 | 55 | 142 | 0.0 | 0.0 | 0.00 | 0.00 | 0.00 | 74 | 985.0 |
| 20260902091201 | 55 | 142 | 0.0 | 0.0 | 0.00 | 0.00 | 0.00 | 74 | 984.8 |
| 20260902090701 | 55 | 142 | 0.0 | 0.0 | 0.00 | 0.00 | 0.00 | 74 | 985.0 |
| 20260902090203 | 55 | 142 | 0.0 | 0.0 | 0.00 | 0.00 | 0.00 | 73 | 985.0 |
| 20260902085700 | 56 | 142 | 0.0 | 0.0 | 0.00 | 0.00 | 0.00 | 72 | 985.0 |
| 20260902085202 | 57 | 134 | 0.0 | 0.0 | 0.00 | 0.00 | 0.00 | 71 | 985.0 |
| 20260902084702 | 57 | 134 | 0.0 | 0.0 | 0.00 | 0.00 | 0.00 | 71 | 984.8 |
| 20260902084201 | 56 | 134 | 0.0 | 0.0 | 0.00 | 0.00 | 0.00 | 72 | 984.8 |
| 20260902083705 | 56 | 134 | 0.0 | 0.0 | 0.00 | 0.00 | 0.00 | 72 | 985.0 |
| 20260902083701 | 56 | 135 | 0.0 | 0.0 | 0.00 | 0.00 | 0.00 | 71 | 985.0 |
| 20260902082659 | 57 | 135 | 0.0 | 0.0 | 0.00 | 0.00 | 0.00 | 70 | 985.0 |
| 20260902082159 | 58 | 135 | 0.0 | 0.0 | 0.00 | 0.00 | 0.00 | 69 | 985.0 |
| 20260902081659 | 58 | 135 | 0.0 | 0.0 | 0.00 | 0.00 | 0.00 | 68 | 985.0 |
| 20260902081200 | 58 | 164 | 0.0 | 0.0 | 0.00 | 0.00 | 0.00 | 69 | 985.0 |
| 20260902080701 | 58 | 164 | 0.0 | 0.9 | 0.00 | 0.00 | 0.00 | 69 | 985.1 |
| 20260902080203 | 59 | 155 | 0.0 | 0.0 | 0.00 | 0.00 | 0.00 | 67 | 985.2 |
| 20260902080159 | 58 | 164 | 0.0 | 0.9 | 0.00 | 0.00 | 0.00 | 69 | 985.2 |
| 20260902075806 | 59 | 154 | 0.0 | 0.9 | 0.00 | 0.00 | 0.00 | 68 | 985.3 |
| 20260902075159 | 59 | 154 | 0.0 | 0.0 | 0.00 | 0.00 | 0.00 | 68 | 985.2 |
| 20260902074200 | 58 | 155 | 0.0 | 0.9 | 0.00 | 0.00 | 0.00 | 69 | 985.2 |
| 20260902073700 | 58 | 202 | 0.0 | 0.9 | 0.00 | 0.00 | 0.00 | 71 | 985.3 |
| 20260902073159 | 58 | 210 | 0.0 | 0.0 | 0.00 | 0.00 | 0.00 | 71 | 985.2 |
| 20260902072704 | 59 | 162 | 0.0 | 0.0 | 0.00 | 0.00 | 0.00 | 70 | 985.1 |
| 20260902072700 | 58 | 162 | 0.0 | 0.0 | 0.00 | 0.00 | 0.00 | 71 | 985.2 |
| 20260902071702 | 59 | 162 | 0.0 | 0.0 | 0.00 | 0.00 | 0.00 | 69 | 985.1 |
| 20260902071157 | 60 | 188 | 0.0 | 0.0 | 0.00 | 0.00 | 0.00 | 68 | 985.0 |
| 20260902070658 | 61 | 234 | 0.0 | 0.0 | 0.00 | 0.00 | 0.00 | 67 | 985.0 |
| 20260902070157 | 62 | 234 | 0.0 | 0.0 | 0.00 | 0.00 | 0.00 | 65 | 985.0 |
| 20260902065702 | 62 | 234 | 0.0 | 0.0 | 0.00 | 0.00 | 0.00 | 63 | 984.8 |
| 20260902065158 | 63 | 234 | 0.0 | 0.0 | 0.00 | 0.00 | 0.00 | 60 | 985.0 |
| 20260902064658 | 64 | 234 | 0.0 | 0.0 | 0.00 | 0.00 | 0.00 | 58 | 985.0 |
| 20260902064157 | 65 | 234 | 0.0 | 0.0 | 0.00 | 0.00 | 0.00 | 56 | 985.0 |
| 20260902063657 | 66 | 234 | 0.0 | 0.9 | 0.00 | 0.00 | 0.00 | 54 | 985.0 |
| 20260902063155 | 66 | 234 | 0.0 | 0.9 | 0.00 | 0.00 | 0.00 | 53 | 985.0 |
| 20260902062655 | 66 | 224 | 0.0 | 0.0 | 0.00 | 0.00 | 0.00 | 53 | 985.0 |
| 20260902062155 | 66 | 233 | 0.0 | 0.9 | 0.00 | 0.00 | 0.00 | 53 | 984.8 |
| 20260902060656 | 67 | 210 | 0.0 | 1.7 | 0.00 | 0.00 | 0.00 | 53 | 985.0 |
| 20260902060155 | 67 | 211 | 0.0 | 1.7 | 0.00 | 0.00 | 0.00 | 53 | 985.0 |
| 20260902055653 | 67 | 207 | 0.0 | 0.9 | 0.00 | 0.00 | 0.00 | 53 | 985.0 |
| 20260902055154 | 67 | 209 | 0.0 | 2.6 | 0.00 | 0.00 | 0.00 | 52 | 985.1 |
| 20260902054651 | 67 | 190 | 0.0 | 2.6 | 0.00 | 0.00 | 0.00 | 53 | 985.1 |
| 20260902054150 | 67 | 207 | 0.9 | 5.2 | 0.00 | 0.00 | 0.00 | 55 | 985.1 |
| 20260902053651 | 67 | 233 | 2.6 | 5.2 | 0.00 | 0.00 | 0.00 | 56 | 985.1 |
| 20260902053149 | 67 | 210 | 2.6 | 6.1 | 0.00 | 0.00 | 0.00 | 57 | 985.2 |
| 20260902052648 | 68 | 214 | 2.6 | 6.1 | 0.00 | 0.00 | 0.00 | 57 | 985.2 |
| 20260902052148 | 68 | 217 | 2.6 | 7.0 | 0.00 | 0.00 | 0.00 | 57 | 985.2 |
| 20260902051648 | 68 | 213 | 3.5 | 7.0 | 0.00 | 0.00 | 0.00 | 57 | 985.3 |
| 20260902051148 | 68 | 214 | 4.3 | 8.7 | 0.00 | 0.00 | 0.00 | 56 | 985.2 |
| 20260902050648 | 68 | 207 | 6.1 | 10.4 | 0.00 | 0.00 | 0.00 | 56 | 985.2 |
| 20260902050148 | 68 | 189 | 6.1 | 12.2 | 0.00 | 0.00 | 0.00 | 56 | 985.1 |
| 20260902045648 | 68 | 195 | 6.1 | 12.2 | 0.00 | 0.00 | 0.00 | 57 | 985.1 |
| 20260902045150 | 68 | 205 | 4.3 | 9.6 | 0.00 | 0.00 | 0.00 | 57 | 984.8 |
| 20260902045146 | 68 | 206 | 5.2 | 12.2 | 0.00 | 0.00 | 0.00 | 57 | 985.0 |
| 20260902044145 | 68 | 147 | 5.2 | 13.0 | 0.00 | 0.00 | 0.00 | 57 | 984.8 |
| 20260902043646 | 68 | 151 | 5.2 | 13.0 | 0.00 | 0.00 | 0.00 | 57 | 984.8 |
| 20260902043146 | 68 | 181 | 4.3 | 12.2 | 0.00 | 0.00 | 0.00 | 57 | 985.0 |
| 20260902042645 | 68 | 164 | 4.3 | 9.6 | 0.00 | 0.00 | 0.00 | 57 | 985.0 |
| 20260902042149 | 68 | 124 | 5.2 | 10.4 | 0.00 | 0.00 | 0.00 | 56 | 985.1 |
| 20260902042145 | 68 | 138 | 5.2 | 10.4 | 0.00 | 0.00 | 0.00 | 56 | 985.1 |
| 20260902041145 | 68 | 150 | 4.3 | 9.6 | 0.00 | 0.00 | 0.00 | 56 | 985.1 |
| 20260902040650 | 68 | 210 | 4.3 | 13.0 | 0.00 | 0.00 | 0.00 | 55 | 985.1 |
| 20260902040646 | 68 | 181 | 4.3 | 9.6 | 0.00 | 0.00 | 0.00 | 55 | 985.0 |
| 20260902035649 | 68 | 172 | 4.3 | 11.3 | 0.00 | 0.00 | 0.00 | 55 | 985.0 |
| 20260902035644 | 68 | 55 | 4.3 | 13.0 | 0.00 | 0.00 | 0.00 | 55 | 985.0 |
| 20260902035249 | 68 | 189 | 3.5 | 7.8 | 0.00 | 0.00 | 0.00 | 55 | 985.1 |
| 20260902034144 | 68 | 199 | 3.5 | 7.8 | 0.00 | 0.00 | 0.00 | 54 | 985.0 |
| 20260902033644 | 68 | 170 | 2.6 | 5.2 | 0.00 | 0.00 | 0.00 | 54 | 985.0 |
| 20260902033143 | 68 | 201 | 2.6 | 7.0 | 0.00 | 0.00 | 0.00 | 53 | 985.0 |
| 20260902032642 | 68 | 130 | 2.6 | 7.0 | 0.00 | 0.00 | 0.00 | 54 | 985.0 |
| 20260902032140 | 68 | 164 | 1.7 | 7.0 | 0.00 | 0.00 | 0.00 | 54 | 985.0 |
| 20260902031639 | 67 | 188 | 0.9 | 5.2 | 0.00 | 0.00 | 0.00 | 55 | 985.0 |
| 20260902031140 | 67 | 129 | 0.0 | 2.6 | 0.00 | 0.00 | 0.00 | 56 | 984.8 |
| 20260902030640 | 67 | 120 | 0.0 | 1.7 | 0.00 | 0.00 | 0.00 | 55 | 984.8 |
| 20260902030139 | 68 | 129 | 0.0 | 0.9 | 0.00 | 0.00 | 0.00 | 55 | 984.7 |
| 20260902025639 | 68 | 129 | 0.0 | 0.9 | 0.00 | 0.00 | 0.00 | 54 | 984.7 |
| 20260902025140 | 68 | 145 | 0.0 | 0.9 | 0.00 | 0.00 | 0.00 | 54 | 984.7 |
| 20260902024639 | 69 | 159 | 0.0 | 1.7 | 0.00 | 0.00 | 0.00 | 54 | 984.6 |
| 20260902024140 | 69 | 167 | 0.0 | 1.7 | 0.00 | 0.00 | 0.00 | 53 | 984.5 |
| 20260902023645 | 71 | 188 | 0.0 | 1.7 | 0.00 | 0.00 | 0.00 | 48 | 984.3 |
| 20260902023639 | 69 | 176 | 0.0 | 0.0 | 0.00 | 0.00 | 0.00 | 51 | 984.4 |
| 20260902023139 | 70 | 194 | 0.0 | 0.0 | 0.00 | 0.00 | 0.00 | 49 | 984.3 |
| 20260902022139 | 71 | 203 | 0.0 | 1.7 | 0.00 | 0.00 | 0.00 | 48 | 984.3 |
| 20260902021639 | 71 | 190 | 0.9 | 3.5 | 0.00 | 0.00 | 0.00 | 47 | 984.3 |
| 20260902021139 | 72 | 170 | 0.9 | 3.5 | 0.00 | 0.00 | 0.00 | 46 | 984.1 |
| 20260902020640 | 73 | 208 | 0.0 | 2.6 | 0.00 | 0.00 | 0.00 | 45 | 984.0 |
| 20260902020140 | 73 | 220 | 0.0 | 0.9 | 0.00 | 0.00 | 0.00 | 45 | 983.9 |
| 20260902015643 | 74 | 12 | 0.0 | 0.0 | 0.00 | 0.00 | 0.00 | 44 | 983.8 |
| 20260902015639 | 73 | 245 | 0.0 | 0.0 | 0.00 | 0.00 | 0.00 | 44 | 983.9 |
| 20260902014639 | 74 | 12 | 0.0 | 0.9 | 0.00 | 0.00 | 0.00 | 43 | 983.9 |
| 20260902014139 | 74 | 8 | 0.0 | 0.9 | 0.00 | 0.00 | 0.00 | 43 | 983.8 |
| 20260902013643 | 75 | 311 | 0.0 | 2.6 | 0.00 | 0.00 | 0.00 | 41 | 983.8 |
| 20260902013639 | 75 | 4 | 0.0 | 1.7 | 0.00 | 0.00 | 0.00 | 42 | 983.7 |
| 20260902012640 | 75 | 321 | 0.0 | 2.6 | 0.00 | 0.00 | 0.00 | 41 | 983.7 |
| 20260902012137 | 76 | 357 | 0.0 | 1.7 | 0.00 | 0.00 | 0.00 | 40 | 983.7 |
| 20260902011637 | 76 | 356 | 0.9 | 4.3 | 0.00 | 0.00 | 0.00 | 40 | 983.7 |
| 20260902011137 | 76 | 282 | 0.9 | 5.2 | 0.00 | 0.00 | 0.00 | 39 | 983.7 |
| 20260902010635 | 76 | 276 | 0.9 | 5.2 | 0.00 | 0.00 | 0.00 | 38 | 983.7 |
| 20260902010135 | 77 | 310 | 0.0 | 2.6 | 0.00 | 0.00 | 0.00 | 38 | 983.8 |
| 20260902005639 | 78 | 338 | 0.9 | 3.5 | 0.00 | 0.00 | 0.00 | 36 | 983.7 |
| 20260902005635 | 77 | 273 | 0.0 | 3.5 | 0.00 | 0.00 | 0.00 | 38 | 983.8 |
| 20260902004636 | 78 | 316 | 0.9 | 4.3 | 0.00 | 0.00 | 0.00 | 36 | 983.5 |
| 20260902004135 | 79 | 319 | 0.0 | 4.3 | 0.00 | 0.00 | 0.00 | 35 | 983.5 |
| 20260902003635 | 79 | 237 | 0.9 | 6.1 | 0.00 | 0.00 | 0.00 | 34 | 983.5 |
| 20260902003142 | 80 | 342 | 0.9 | 6.1 | 0.00 | 0.00 | 0.00 | 32 | 983.5 |
| 20260902003136 | 80 | 330 | 1.7 | 6.1 | 0.00 | 0.00 | 0.00 | 33 | 983.5 |
| 20260902002637 | 80 | 2 | 0.9 | 6.1 | 0.00 | 0.00 | 0.00 | 33 | 983.4 |
| 20260902001633 | 80 | 14 | 1.7 | 7.8 | 0.00 | 0.00 | 0.00 | 31 | 983.5 |
| 20260902001138 | 81 | 307 | 1.7 | 7.8 | 0.00 | 0.00 | 0.00 | 31 | 983.5 |
| 20260902000633 | 81 | 330 | 0.9 | 5.2 | 0.00 | 0.00 | 0.00 | 29 | 983.4 |
| 20260902000133 | 82 | 309 | 0.9 | 5.2 | 0.00 | 0.00 | 0.00 | 29 | 983.4 |
| 20260901235633 | 82 | 304 | 0.9 | 5.2 | 0.00 | 0.00 | 0.00 | 29 | 983.4 |
| 20260901235134 | 81 | 317 | 0.0 | 1.7 | 0.00 | 0.00 | 0.00 | 29 | 983.4 |
| 20260901234637 | 82 | 145 | 0.0 | 0.9 | 0.00 | 0.00 | 0.00 | 27 | 983.4 |
| 20260901234633 | 81 | 170 | 0.0 | 0.9 | 0.00 | 0.00 | 0.00 | 27 | 983.4 |
| 20260901233633 | 82 | 145 | 0.0 | 0.9 | 0.00 | 0.00 | 0.00 | 27 | 983.4 |
| 20260901233133 | 82 | 148 | 0.0 | 0.0 | 0.00 | 0.00 | 0.00 | 26 | 983.3 |
| 20260901232633 | 82 | 148 | 0.0 | 0.9 | 0.00 | 0.00 | 0.00 | 26 | 983.4 |
| 20260901232133 | 82 | 148 | 0.0 | 0.9 | 0.00 | 0.00 | 0.00 | 26 | 983.4 |
| 20260901231633 | 82 | 195 | 0.0 | 0.9 | 0.00 | 0.00 | 0.00 | 26 | 983.4 |
| 20260901231133 | 83 | 115 | 0.0 | 0.9 | 0.00 | 0.00 | 0.00 | 25 | 983.4 |
| 20260901230631 | 83 | 146 | 0.0 | 2.6 | 0.00 | 0.00 | 0.00 | 25 | 983.4 |
| 20260901230131 | 83 | 137 | 0.9 | 4.3 | 0.00 | 0.00 | 0.00 | 25 | 983.4 |
| 20260901225631 | 84 | 185 | 0.9 | 4.3 | 0.00 | 0.00 | 0.00 | 24 | 983.4 |
| 20260901225129 | 85 | 184 | 0.0 | 0.9 | 0.00 | 0.00 | 0.00 | 25 | 983.4 |
| 20260901224629 | 86 | 141 | 0.0 | 2.6 | 0.00 | 0.00 | 0.00 | 24 | 983.4 |
| 20260901224129 | 86 | 285 | 0.0 | 2.6 | 0.00 | 0.00 | 0.00 | 24 | 983.4 |
| 20260901223634 | 86 | 236 | 0.0 | 2.6 | 0.00 | 0.00 | 0.00 | 25 | 983.5 |
| 20260901223629 | 87 | 7 | 0.0 | 1.7 | 0.00 | 0.00 | 0.00 | 23 | 983.5 |
| 20260901222629 | 85 | 334 | 0.0 | 2.6 | 0.00 | 0.00 | 0.00 | 26 | 983.5 |
| 20260901222128 | 86 | 337 | 0.0 | 0.9 | 0.00 | 0.00 | 0.00 | 24 | 983.7 |
| 20260901221627 | 86 | 246 | 0.0 | 0.9 | 0.00 | 0.00 | 0.00 | 26 | 983.8 |
| 20260901221131 | 85 | 219 | 0.0 | 1.7 | 0.00 | 0.00 | 0.00 | 23 | 983.8 |
| 20260901221127 | 85 | 156 | 0.0 | 0.0 | 0.00 | 0.00 | 0.00 | 25 | 983.8 |
| 20260901220127 | 84 | 36 | 0.0 | 1.7 | 0.00 | 0.00 | 0.00 | 23 | 983.9 |
| 20260901215627 | 85 | 131 | 0.0 | 0.9 | 0.00 | 0.00 | 0.00 | 24 | 983.9 |
| 20260901215127 | 84 | 158 | 0.0 | 0.9 | 0.00 | 0.00 | 0.00 | 24 | 984.0 |
| 20260901214627 | 83 | 117 | 0.0 | 0.9 | 0.00 | 0.00 | 0.00 | 25 | 984.0 |
| 20260901214127 | 82 | 1 | 0.0 | 0.9 | 0.00 | 0.00 | 0.00 | 25 | 984.1 |
| 20260901213627 | 81 | 141 | 0.0 | 1.7 | 0.00 | 0.00 | 0.00 | 27 | 984.1 |
| 20260901213125 | 81 | 326 | 0.0 | 1.7 | 0.00 | 0.00 | 0.00 | 26 | 984.1 |
| 20260901212630 | 81 | 210 | 0.9 | 4.3 | 0.00 | 0.00 | 0.00 | 27 | 984.3 |
| 20260901212625 | 80 | 290 | 0.9 | 2.6 | 0.00 | 0.00 | 0.00 | 27 | 984.3 |
| 20260901212125 | 81 | 248 | 0.9 | 2.6 | 0.00 | 0.00 | 0.00 | 26 | 984.3 |
| 20260901211130 | 81 | 193 | 0.9 | 4.3 | 0.00 | 0.00 | 0.00 | 26 | 984.4 |
| 20260901210623 | 82 | 245 | 0.0 | 2.6 | 0.00 | 0.00 | 0.00 | 25 | 984.5 |
| 20260901210123 | 82 | 213 | 0.0 | 3.5 | 0.00 | 0.00 | 0.00 | 26 | 984.5 |
| 20260901205632 | 83 | 102 | 0.9 | 6.1 | 0.00 | 0.00 | 0.00 | 25 | 984.6 |
| 20260901205623 | 83 | 297 | 0.0 | 3.5 | 0.00 | 0.00 | 0.00 | 25 | 984.5 |
| 20260901204628 | 85 | 169 | 1.7 | 5.2 | 0.00 | 0.00 | 0.00 | 24 | 984.6 |
| 20260901204624 | 83 | 124 | 1.7 | 6.1 | 0.00 | 0.00 | 0.00 | 26 | 984.6 |
| 20260901204228 | 86 | 217 | 0.0 | 3.5 | 0.00 | 0.00 | 0.00 | 27 | 984.7 |
| 20260901203622 | 86 | 159 | 0.9 | 4.3 | 0.00 | 0.00 | 0.00 | 24 | 984.7 |
| 20260901202621 | 85 | 206 | 0.9 | 4.3 | 0.00 | 0.00 | 0.00 | 26 | 984.8 |
| 20260901202121 | 86 | 139 | 0.9 | 4.3 | 0.00 | 0.00 | 0.00 | 26 | 984.8 |
| 20260901201621 | 86 | 203 | 0.0 | 1.7 | 0.00 | 0.00 | 0.00 | 25 | 985.0 |
| 20260901201121 | 85 | 114 | 0.0 | 1.7 | 0.00 | 0.00 | 0.00 | 26 | 985.0 |
| 20260901200621 | 85 | 129 | 0.0 | 0.9 | 0.00 | 0.00 | 0.00 | 27 | 985.0 |
| 20260901200120 | 84 | 131 | 0.0 | 2.6 | 0.00 | 0.00 | 0.00 | 28 | 985.1 |
| 20260901195622 | 83 | 116 | 0.9 | 2.6 | 0.00 | 0.00 | 0.00 | 28 | 985.2 |
| 20260901195618 | 82 | 122 | 1.7 | 4.3 | 0.00 | 0.00 | 0.00 | 28 | 985.3 |
| 20260901195223 | 81 | 243 | 1.7 | 7.0 | 0.00 | 0.00 | 0.00 | 30 | 985.3 |
| 20260901194116 | 81 | 238 | 1.7 | 7.0 | 0.00 | 0.00 | 0.00 | 29 | 985.3 |
| 20260901193616 | 80 | 262 | 0.9 | 4.3 | 0.00 | 0.00 | 0.00 | 30 | 985.6 |
| 20260901193121 | 79 | 236 | 0.9 | 5.2 | 0.00 | 0.00 | 0.00 | 30 | 985.6 |
| 20260901193116 | 80 | 229 | 0.9 | 2.6 | 0.00 | 0.00 | 0.00 | 29 | 985.6 |
| 20260901192115 | 79 | 192 | 0.9 | 5.2 | 0.00 | 0.00 | 0.00 | 30 | 985.7 |
| 20260901191615 | 80 | 333 | 1.7 | 5.2 | 0.00 | 0.00 | 0.00 | 29 | 985.8 |
| 20260901191114 | 80 | 191 | 1.7 | 5.2 | 0.00 | 0.00 | 0.00 | 28 | 985.8 |
| 20260901190614 | 81 | 309 | 3.5 | 9.6 | 0.00 | 0.00 | 0.00 | 27 | 985.9 |
| 20260901190118 | 81 | 182 | 1.7 | 9.6 | 0.00 | 0.00 | 0.00 | 30 | 985.8 |
| 20260901190114 | 81 | 256 | 3.5 | 9.6 | 0.00 | 0.00 | 0.00 | 28 | 985.8 |
| 20260901185114 | 80 | 156 | 0.9 | 7.0 | 0.00 | 0.00 | 0.00 | 32 | 985.9 |
| 20260901184623 | 79 | 224 | 1.7 | 6.1 | 0.00 | 0.00 | 0.00 | 31 | 985.9 |
| 20260901184619 | 80 | 234 | 0.9 | 7.0 | 0.00 | 0.00 | 0.00 | 30 | 986.0 |
| 20260901183616 | 79 | 212 | 3.5 | 7.8 | 0.00 | 0.00 | 0.00 | 31 | 986.1 |
| 20260901183115 | 79 | 219 | 3.5 | 7.8 | 0.00 | 0.00 | 0.00 | 30 | 986.0 |
| 20260901182615 | 79 | 208 | 3.5 | 10.4 | 0.00 | 0.00 | 0.00 | 29 | 986.1 |
| 20260901182118 | 79 | 252 | 2.6 | 7.8 | 0.00 | 0.00 | 0.00 | 32 | 986.3 |
| 20260901182114 | 79 | 221 | 2.6 | 10.4 | 0.00 | 0.00 | 0.00 | 28 | 986.0 |
| 20260901181115 | 79 | 242 | 3.5 | 7.8 | 0.00 | 0.00 | 0.00 | 33 | 986.4 |
| 20260901180614 | 78 | 212 | 4.3 | 10.4 | 0.00 | 0.00 | 0.00 | 33 | 986.4 |
| 20260901180114 | 78 | 201 | 4.3 | 13.0 | 0.00 | 0.00 | 0.00 | 30 | 986.5 |
| 20260901175619 | 78 | 198 | 1.7 | 7.8 | 0.00 | 0.00 | 0.00 | 38 | 986.6 |
| 20260901175615 | 78 | 174 | 2.6 | 13.0 | 0.00 | 0.00 | 0.00 | 33 | 986.5 |
| 20260901174618 | 76 | 222 | 3.5 | 7.8 | 0.00 | 0.00 | 0.00 | 37 | 986.9 |
| 20260901174614 | 77 | 205 | 2.6 | 7.8 | 0.00 | 0.00 | 0.00 | 38 | 986.7 |